Weather History for KMHE - December, 2012

Change the Weather History Date:

Sunday, December 9, 2012

  Actual Average Record
Temperature  
Mean Temperature 17 °F 22 °F  
Max Temperature 32 °F 31 °F 64 °F (1957)
Min Temperature 2 °F 13 °F -23 °F (1955)
Degree Days  
Heating Degree Days 48 43  
Month to date heating degree days 255 373  
Since 1 July heating degree days 1781 1941  
Cooling Degree Days 0 0  
Month to date cooling degree days 0 0  
Year to date cooling degree days 1236 824  
Moisture  
Dew Point 12 °F    
Average Humidity 83    
Maximum Humidity 93    
Minimum Humidity 73    
Precipitation  
Precipitation 0.02 in 0.01 in 0.40 in (1948)
Month to date precipitation 0.11 0.20  
Year to date precipitation 21.27 21.27  
Snow  
Snow 0.00 in - 4.00 in (2003)
Month to date snowfall 0.9  
Since 1 July snowfall 1.6  
Snow Depth -    
Sea Level Pressure  
Sea Level Pressure 30.03 in    
Wind  
Wind Speed 23 mph (NW)    
Max Wind Speed 38 mph    
Max Gust Speed 54 mph    
Visibility 3 miles    
Events Fog , Snow    
T = Trace of Precipitation, MM = Missing Value Source: NWS Daily Summary

Daily Weather History Graph

Daily Weather History Graph

Search for Another Location

Airport or City:

Trip Planner

Search our weather history database for the weather conditions in past years. The results will help you decide how hot, cold, wet, or windy it might be!

Date:

Astronomy

Dec. 09, 2012 Rise Set
Actual Time 7:54 AM CST 4:54 PM CST
Civil Twilight 7:21 AM CST 5:27 PM CST
Nautical Twilight 6:45 AM CST 6:03 PM CST
Astronomical Twilight 6:10 AM CST 6:38 PM CST
Moon 3:23 AM CST (12/9) 2:07 PM CST (12/9)
Length of Visible Light 10h 05m
Length of Day
9h 00m
Waning Crescent, 18% of the Moon is Illuminated
Dec 9
Waning Crescent
Dec 13
New
Dec 19
First Quarter
Dec 28
Full
Jan 4
Last Quarter

Hourly Weather History & Observations

Time (CST) Temp. Windchill Dew Point Humidity Pressure Visibility Wind Dir Wind Speed Gust Speed Precip Events Conditions
12:08 AM 30.2 °F 20.8 °F 28.4 °F 93% 29.78 in 6.0 mi SSE 11.5 mph - N/A   Mostly Cloudy
12:53 AM 32.0 °F 26.4 °F 28.0 °F 85% 29.81 in 7.0 mi South 5.8 mph - N/A   Overcast
1:18 AM 32.0 °F 26.4 °F 28.4 °F 87% 29.76 in 6.0 mi South 5.8 mph - N/A   Overcast
1:53 AM 32.0 °F 25.6 °F 28.0 °F 85% 29.81 in 7.0 mi SSW 6.9 mph - N/A   Overcast
2:35 AM 32.0 °F 28.7 °F 28.4 °F 87% 29.74 in 10.0 mi SW 3.5 mph - N/A   Overcast
2:53 AM 32.0 °F 27.5 °F 28.9 °F 88% 29.79 in 10.0 mi West 4.6 mph - N/A   Overcast
3:43 AM 30.2 °F 20.2 °F 28.4 °F 93% 29.76 in 2.5 mi NW 12.7 mph - 0.00 in Snow Light Snow
3:53 AM 30.0 °F 19.5 °F 28.0 °F 92% 29.80 in 2.5 mi NW 13.8 mph - 0.00 in Snow Light Snow
4:12 AM 30.2 °F 20.2 °F 28.4 °F 93% 29.75 in 1.8 mi NW 12.7 mph - 0.00 in Snow Light Snow
4:29 AM 30.2 °F 21.3 °F 28.4 °F 93% 29.75 in 1.2 mi NNW 10.4 mph - 0.00 in Snow Light Snow
4:53 AM 30.0 °F 21.7 °F 28.0 °F 92% 29.81 in 1.0 mi NNW 9.2 mph - 0.00 in Snow Light Snow
5:13 AM 30.2 °F 16.2 °F 28.4 °F 93% 29.77 in 0.8 mi NNW 25.3 mph 29.9 mph 0.00 in Snow Light Snow
5:53 AM 23.0 °F 6.9 °F 19.9 °F 88% 29.84 in 0.8 mi NNW 24.2 mph 34.5 mph 0.00 in Snow Light Snow
6:53 AM 18.0 °F -0.8 °F 14.0 °F 84% 29.91 in 0.5 mi NNW 27.6 mph 36.8 mph 0.00 in Fog , Snow Light Freezing Fog
7:53 AM 16.0 °F -3.8 °F 12.0 °F 84% 29.97 in 0.8 mi NNW 28.8 mph 35.7 mph 0.00 in Snow Blowing Snow
8:23 AM 15.8 °F -4.4 °F 10.4 °F 79% 29.93 in 0.2 mi NNW 29.9 mph 40.3 mph 0.00 in Fog , Snow Snow
8:53 AM 15.1 °F -4.4 °F 10.9 °F 84% 30.01 in 0.2 mi NNW 26.5 mph 38.0 mph 0.00 in Fog , Snow Snow
9:22 AM 14.0 °F -5.5 °F 10.4 °F 86% 29.97 in 0.2 mi NNW 25.3 mph 42.6 mph 0.01 in Fog , Snow Snow
9:53 AM 14.0 °F -7.1 °F 10.0 °F 84% 30.05 in 0.2 mi NNW 31.1 mph 40.3 mph 0.01 in Fog , Snow Snow
10:28 AM 12.2 °F -8.2 °F 8.6 °F 85% 30.02 in 0.2 mi NNW 26.5 mph 41.4 mph 0.00 in Fog , Snow Snow
10:53 AM 12.9 °F -8.0 °F 8.1 °F 81% 30.09 in 0.2 mi NNW 28.8 mph 40.3 mph 0.00 in Snow Heavy Snow
11:28 AM 12.2 °F -9.6 °F 6.8 °F 79% 30.03 in 0.5 mi NNW 31.1 mph 39.1 mph 0.00 in Snow Blowing Snow
11:37 AM 10.4 °F -11.0 °F 6.8 °F 85% 30.03 in 0.2 mi NNW 27.6 mph 40.3 mph 0.00 in Fog , Snow Light Freezing Fog
11:53 AM 10.9 °F -11.9 °F 7.0 °F 84% 30.10 in 0.2 mi NNW 33.4 mph 41.4 mph 0.00 in Fog , Snow Light Freezing Fog
12:18 PM 10.4 °F -12.0 °F 6.8 °F 85% 30.04 in 0.5 mi NNW 31.1 mph 43.7 mph N/A Snow Blowing Snow
12:31 PM 10.4 °F -13.2 °F 6.8 °F 85% 30.05 in 0.2 mi NNW 35.7 mph 54.1 mph 0.00 in Fog , Snow Snow
12:53 PM 10.0 °F -11.9 °F 6.1 °F 84% 30.13 in 0.2 mi NNW 28.8 mph 43.7 mph 0.00 in Fog , Snow Snow
1:53 PM 10.0 °F -12.2 °F 6.1 °F 84% 30.15 in 0.5 mi NNW 29.9 mph 42.6 mph 0.00 in Fog , Snow Light Snow
2:53 PM 10.0 °F -12.5 °F 5.0 °F 80% 30.19 in 0.2 mi NNW 31.1 mph 43.7 mph 0.00 in Snow Heavy Snow
3:05 PM 10.4 °F -12.3 °F 5.0 °F 79% 30.13 in 0.5 mi NNW 32.2 mph 40.3 mph 0.00 in Snow Snow
3:38 PM 8.6 °F -14.1 °F 3.2 °F 79% 30.16 in 1.0 mi NNW 29.9 mph 35.7 mph 0.01 in Snow Light Snow
3:53 PM 9.0 °F -12.2 °F 3.9 °F 80% 30.24 in 2.0 mi NNW 25.3 mph 32.2 mph 0.01 in Snow Blowing Snow
4:04 PM 8.6 °F -12.7 °F 3.2 °F 79% 30.17 in 3.0 mi NNW 25.3 mph 33.4 mph N/A Snow Blowing Snow
4:26 PM 8.6 °F -13.8 °F 3.2 °F 79% 30.18 in 1.8 mi NNW 28.8 mph 39.1 mph N/A Snow Blowing Snow
4:44 PM 8.6 °F -12.3 °F 1.4 °F 73% 30.18 in 3.0 mi NNW 24.2 mph 32.2 mph N/A Snow Blowing Snow
4:53 PM 9.0 °F -12.6 °F 3.0 °F 77% 30.25 in 2.5 mi NNW 26.5 mph 35.7 mph N/A Snow Blowing Snow
5:09 PM 8.6 °F -12.3 °F 3.2 °F 79% 30.19 in 4.0 mi NNW 24.2 mph 35.7 mph N/A Snow Blowing Snow
5:53 PM 8.1 °F -11.7 °F 1.9 °F 76% 30.28 in 9.0 mi NNW 20.7 mph 28.8 mph N/A   Partly Cloudy
6:53 PM 7.0 °F -14.0 °F -0.0 °F 73% 30.31 in 10.0 mi NNW 23.0 mph - N/A   Clear
7:53 PM 6.1 °F -14.8 °F -0.0 °F 76% 30.33 in 10.0 mi NNW 21.9 mph - N/A   Clear
8:53 PM 5.0 °F -15.2 °F -0.9 °F 76% 30.33 in 10.0 mi NW 19.6 mph - N/A   Clear
9:53 PM 3.9 °F -14.3 °F -2.0 °F 76% 30.31 in 10.0 mi NW 15.0 mph - N/A   Clear
10:53 PM 1.9 °F -15.5 °F -4.0 °F 76% 30.30 in 10.0 mi NW 12.7 mph - N/A   Clear
11:53 PM 1.9 °F -15.5 °F -4.0 °F 76% 30.30 in 10.0 mi NW 12.7 mph - N/A   Clear